Weather History for Zapata, TX

Change the Weather History Date:

Saturday, May 18, 2013

  Actual Average (KLRD) Record (KLRD)
Temperature  
Mean Temperature 86 °F 83 °F  
Max Temperature 95 °F 94 °F 104 °F (2001)
Min Temperature 76 °F 72 °F 57 °F (1970)
Degree Days  
Heating Degree Days 0 0  
Month to date heating degree days 0  
Since 1 July heating degree days 926  
Cooling Degree Days 20 18  
Month to date cooling degree days 292  
Year to date cooling degree days 892  
Growing Degree Days 36 (Base 50)    
Moisture  
Dew Point 66 °F    
Average Humidity 57    
Maximum Humidity 78    
Minimum Humidity 35    
Precipitation  
Precipitation 0.00 in 0.08 in 2.54 in (1931)
Month to date precipitation 1.44  
Year to date precipitation 5.82  
Sea Level Pressure  
Sea Level Pressure 29.81 in    
Wind  
Wind Speed 12 mph (SE)    
Max Wind Speed 17 mph    
Max Gust Speed 28 mph    
Visibility 8 miles    
Events      
T = Trace of Precipitation, MM = Missing Value Source: NWS Daily Summary

Daily Weather History Graph

Daily Weather History Graph

Search for Another Location

Airport:

Trip Planner

Search our weather history database for the weather conditions in past years. The results will help you decide how hot, cold, wet, or windy it might be!

Date:

Astronomy

May. 18, 2013 Rise Set
Actual Time 6:47 AM CDT 8:19 PM CDT
Civil Twilight 6:22 AM CDT 8:45 PM CDT
Nautical Twilight 5:51 AM CDT 9:15 PM CDT
Astronomical Twilight 5:20 AM CDT 9:47 PM CDT
Moon 2:00 PM CDT (5/18) 2:02 AM CDT (5/18)
Length of Visible Light 14h 22m
Length of Day
13h 32m
First Quarter, 55% of the Moon is Illuminated
May 18
First Quarter
May 24
Full
May 31
Last Quarter
Jun 8
New
Jun 16
First Quarter

Hourly Weather History & Observations

Time (CDT) Temp. Heat Index Dew Point Humidity Pressure Visibility Wind Dir Wind Speed Gust Speed Precip Events Conditions
12:15 AM 79.9 °F - 67.5 °F 66% 29.84 in 10.0 mi ESE 10.4 mph 18.4 mph N/A   Clear
12:35 AM 79.3 °F - 67.5 °F 67% 29.83 in 10.0 mi ESE 11.5 mph 19.6 mph N/A   Clear
12:55 AM 79.2 °F - 67.5 °F 67% 29.83 in 10.0 mi ESE 15.0 mph 19.6 mph N/A   Clear
1:15 AM 79.0 °F - 67.3 °F 67% 29.83 in 10.0 mi SE 11.5 mph 18.4 mph N/A   Clear
1:35 AM 79.2 °F - 67.1 °F 66% 29.83 in 10.0 mi SE 11.5 mph 18.4 mph N/A   Clear
1:55 AM 79.2 °F - 66.7 °F 66% 29.83 in 10.0 mi SE 12.7 mph 18.4 mph N/A   Clear
2:15 AM 78.8 °F - 67.1 °F 67% 29.83 in 10.0 mi SE 11.5 mph 18.4 mph N/A   Clear
2:35 AM 78.8 °F - 67.5 °F 68% 29.82 in 10.0 mi SE 12.7 mph 16.1 mph N/A   Clear
2:55 AM 78.4 °F - 67.6 °F 69% 29.81 in 10.0 mi ESE 10.4 mph 18.4 mph N/A   Clear
3:15 AM 78.3 °F - 68.0 °F 71% 29.81 in 10.0 mi SE 11.5 mph 18.4 mph N/A   Clear
3:35 AM 78.1 °F - 68.4 °F 72% 29.81 in 10.0 mi SE 10.4 mph 18.4 mph N/A   Clear
3:55 AM 77.9 °F - 68.5 °F 73% 29.81 in 10.0 mi SE 10.4 mph 16.1 mph N/A   Clear
4:15 AM 77.9 °F - 68.9 °F 74% 29.81 in 10.0 mi SE 11.5 mph - N/A   Clear
4:35 AM 77.7 °F - 68.9 °F 74% 29.81 in 10.0 mi SE 9.2 mph 18.4 mph N/A   Clear
4:55 AM 77.4 °F - 69.1 °F 76% 29.80 in 7.0 mi SE 9.2 mph - N/A   Clear
5:15 AM 77.2 °F - 69.1 °F 76% 29.80 in 7.0 mi SE 9.2 mph - N/A   Clear
5:35 AM 77.0 °F - 69.1 °F 76% 29.80 in 7.0 mi SE 10.4 mph - N/A   Clear
5:55 AM 76.8 °F - 69.3 °F 77% 29.80 in 7.0 mi SE 8.1 mph - N/A   Clear
6:15 AM 76.6 °F - 69.3 °F 78% 29.81 in 7.0 mi SE 6.9 mph - N/A   Clear
6:35 AM 76.5 °F - 69.1 °F 78% 29.81 in 7.0 mi SE 8.1 mph - N/A   Clear
6:55 AM 76.3 °F - 69.1 °F 78% 29.81 in 7.0 mi SE 8.1 mph - N/A   Clear
7:15 AM 76.5 °F - 69.1 °F 78% 29.82 in 5.0 mi SE 8.1 mph 16.1 mph N/A   Haze
7:35 AM 77.0 °F - 69.3 °F 77% 29.83 in 5.0 mi SE 8.1 mph - N/A   Haze
7:55 AM 77.2 °F - 69.3 °F 76% 29.82 in 5.0 mi SE 9.2 mph 17.3 mph N/A   Haze
8:15 AM 77.7 °F - 69.3 °F 75% 29.83 in 5.0 mi SE 11.5 mph 19.6 mph N/A   Haze
8:35 AM 78.8 °F - 69.4 °F 73% 29.84 in 5.0 mi SE 13.8 mph 18.4 mph N/A   Haze
8:55 AM 79.7 °F - 69.4 °F 71% 29.85 in 5.0 mi SE 11.5 mph 19.6 mph N/A   Haze
9:15 AM 80.6 °F 83.8 °F 69.4 °F 69% 29.85 in 5.0 mi SE 12.7 mph 19.6 mph N/A   Haze
9:35 AM 82.2 °F 85.8 °F 69.4 °F 65% 29.86 in 5.0 mi SSE 11.5 mph 18.4 mph N/A   Haze
9:55 AM 82.6 °F 85.9 °F 68.9 °F 63% 29.87 in 5.0 mi SSE 15.0 mph 21.9 mph N/A   Haze
10:15 AM 83.3 °F 86.6 °F 68.5 °F 61% 29.87 in 5.0 mi SE 13.8 mph 21.9 mph N/A   Haze
10:35 AM 83.5 °F 86.9 °F 68.5 °F 61% 29.87 in 5.0 mi SE 16.1 mph 20.7 mph N/A   Haze
10:55 AM 84.2 °F 87.6 °F 68.5 °F 59% 29.86 in 5.0 mi SSE 17.3 mph 21.9 mph N/A   Haze
11:15 AM 84.6 °F 87.9 °F 68.4 °F 58% 29.85 in 5.0 mi SE 15.0 mph 21.9 mph N/A   Haze
11:35 AM 85.5 °F 88.8 °F 68.2 °F 56% 29.86 in 5.0 mi SE 13.8 mph 23.0 mph N/A   Haze
11:55 AM 86.4 °F 89.7 °F 67.8 °F 54% 29.86 in 7.0 mi SE 13.8 mph 20.7 mph N/A   Clear
12:15 PM 87.4 °F 91.2 °F 68.5 °F 53% 29.85 in 5.0 mi SSE 13.8 mph 18.4 mph N/A   Haze
12:35 PM 88.3 °F 91.6 °F 67.8 °F 50% 29.84 in 5.0 mi SSE 15.0 mph 23.0 mph N/A   Haze
12:55 PM 90.7 °F 93.2 °F 65.8 °F 44% 29.83 in 7.0 mi SSE 15.0 mph 24.2 mph N/A   Clear
1:15 PM 90.5 °F 92.9 °F 66.0 °F 44% 29.82 in 7.0 mi SSE 16.1 mph 19.6 mph N/A   Clear
1:35 PM 90.5 °F 92.2 °F 64.2 °F 42% 29.82 in 7.0 mi SSE 13.8 mph 21.9 mph N/A   Clear
2:15 PM 91.4 °F 93.2 °F 64.4 °F 41% 29.81 in 7.0 mi SSE 15.0 mph 21.9 mph N/A   Clear
2:35 PM 92.5 °F 95.0 °F 65.8 °F 41% 29.81 in 7.0 mi SE 11.5 mph 20.7 mph N/A   Clear
2:55 PM 93.6 °F 95.9 °F 65.5 °F 39% 29.80 in 7.0 mi SE 10.4 mph 20.7 mph N/A   Clear
3:15 PM 93.0 °F 95.9 °F 65.8 °F 41% 29.79 in 7.0 mi SSE 12.7 mph 24.2 mph N/A   Clear
3:35 PM 93.4 °F 96.1 °F 66.0 °F 40% 29.78 in 7.0 mi SE 13.8 mph 23.0 mph N/A   Clear
3:55 PM 95.0 °F 97.4 °F 65.1 °F 37% 29.77 in 7.0 mi SSE 11.5 mph 20.7 mph N/A   Clear
4:15 PM 95.5 °F 98.4 °F 65.1 °F 37% 29.76 in 7.0 mi SE 10.4 mph 21.9 mph N/A   Clear
4:35 PM 94.3 °F 97.2 °F 65.7 °F 39% 29.76 in 7.0 mi SE 13.8 mph 18.4 mph N/A   Clear
5:15 PM 92.5 °F 94.6 °F 64.8 °F 40% 29.77 in 10.0 mi SE 13.8 mph 21.9 mph N/A   Clear
5:35 PM 91.9 °F 93.7 °F 64.8 °F 40% 29.76 in 10.0 mi SE 16.1 mph 20.7 mph N/A   Clear
5:55 PM 91.4 °F 93.2 °F 64.4 °F 41% 29.75 in 10.0 mi ESE 13.8 mph 19.6 mph N/A   Clear
6:15 PM 91.6 °F 93.1 °F 64.2 °F 40% 29.74 in 10.0 mi ESE 13.8 mph 19.6 mph N/A   Clear
6:35 PM 91.9 °F 93.3 °F 63.7 °F 39% 29.74 in 10.0 mi ESE 12.7 mph - N/A   Clear
6:55 PM 91.4 °F 91.7 °F 61.7 °F 37% 29.74 in 10.0 mi ESE 16.1 mph 21.9 mph N/A   Clear
7:15 PM 90.7 °F 90.1 °F 59.4 °F 35% 29.74 in 10.0 mi ESE 12.7 mph 23.0 mph N/A   Clear
7:35 PM 89.6 °F 89.2 °F 60.1 °F 37% 29.75 in 10.0 mi ESE 12.7 mph 18.4 mph N/A   Clear
7:55 PM 89.1 °F 88.8 °F 60.1 °F 38% 29.76 in 10.0 mi ESE 13.8 mph 17.3 mph N/A   Clear
8:15 PM 88.7 °F 88.3 °F 59.9 °F 38% 29.77 in 10.0 mi SE 10.4 mph 16.1 mph N/A   Clear
8:35 PM 88.2 °F 87.8 °F 60.4 °F 39% 29.77 in 10.0 mi SE 15.0 mph 23.0 mph N/A   Clear
8:55 PM 87.4 °F 87.4 °F 61.0 °F 41% 29.78 in 10.0 mi ESE 15.0 mph 21.9 mph N/A   Clear
9:15 PM 86.9 °F 87.0 °F 61.2 °F 42% 29.79 in 10.0 mi SE 11.5 mph 21.9 mph N/A   Clear
9:35 PM 86.0 °F 86.6 °F 62.2 °F 45% 29.79 in 10.0 mi SE 12.7 mph 24.2 mph N/A   Clear
9:55 PM 85.1 °F 86.1 °F 63.1 °F 48% 29.79 in 10.0 mi SE 11.5 mph 25.3 mph N/A   Clear
10:15 PM 84.2 °F 85.4 °F 63.5 °F 50% 29.79 in 10.0 mi SE 12.7 mph 20.7 mph N/A   Clear
10:35 PM 83.5 °F 84.7 °F 63.9 °F 51% 29.79 in 10.0 mi ESE 11.5 mph 18.4 mph N/A   Clear
11:15 PM 82.4 °F 83.9 °F 64.4 °F 54% 29.81 in 10.0 mi SE 11.5 mph 19.6 mph N/A   Clear
11:35 PM 81.9 °F 83.5 °F 64.8 °F 56% 29.80 in 10.0 mi SE 16.1 mph 26.5 mph N/A   Clear
11:55 PM 81.5 °F 83.4 °F 65.3 °F 58% 29.81 in 10.0 mi SE 13.8 mph 27.6 mph N/A   Clear